Location: Dzierzno
(50.6159°N, 19.2852°E)
Time: 06:34:43
(UTC+00:00)

Resurs 01 Rocket - Pass Details

Date: 18 November 2025
Orbit: 626 x 636 km, 97.7° (Epoch: 06 December)

Event Time Altitude Azimuth Distance (km) Brightness Sun altitude
Exits shadow 17:30:07 28° 0° (N) 1,205 3.0 -24.6°
Drops below altitude 10° 17:32:17 10° 352° (N) 2,036 4.3 -25.0°
Sets 17:34:30 0° 349° (N) 2,948 5.2 -25.3°
